#
# The Tor Project
#
# URL: https://metrics.torproject.org/bandwidth.csv?end=2016-06-01&start=2013-01-01
#
date,advbw,bwhist
2013-01-01,26.915199936,17.657249128
2013-01-02,27.263231368,18.335333736
2013-01-03,28.149994224,17.860801108
2013-01-04,28.49637668,17.655953456
2013-01-05,28.057311776,18.233903208
2013-01-06,28.029504904,18.54288146
2013-01-07,29.571129048,18.02736682
2013-01-08,28.737422624,17.736923556
2013-01-09,28.089413016,17.931208188
2013-01-10,28.23189044,17.985231888
2013-01-11,28.635393768,18.923636644
2013-01-12,29.804205856,19.648790672
2013-01-13,30.145576192,19.376925084
2013-01-14,30.20991292,19.84670746
2013-01-15,30.220574272,18.994880716
2013-01-16,30.230917,18.619450148
2013-01-17,30.316506952,18.496978736
2013-01-18,29.606655312,18.107620204
2013-01-19,29.492852112,18.870840912
2013-01-20,29.574002736,18.836774884
2013-01-21,29.718849168,18.310187816
2013-01-22,29.483566224,18.491317572
2013-01-23,29.390987232,18.66812958
2013-01-24,30.102087688,18.351893112
2013-01-25,30.03622776,18.396008744
2013-01-26,29.957432152,18.359268336
2013-01-27,30.103397288,18.079973868
2013-01-28,30.280703992,18.291796776
2013-01-29,29.5318888,17.98630056
2013-01-30,30.474089992,18.031222156
2013-01-31,28.930197104,17.83177916
2013-02-01,29.688071736,18.33030298
2013-02-02,29.7364684,18.304619536
2013-02-03,29.208347952,18.195662972
2013-02-04,28.80993224,17.840930216
2013-02-05,28.61538296,17.355241096
2013-02-06,28.59362196,17.446583328
2013-02-07,28.857918928,17.995447892
2013-02-08,28.959470096,18.807665848
2013-02-09,29.089248808,18.72238268
2013-02-10,29.221002352,17.956652936
2013-02-11,29.432110648,18.735354212
2013-02-12,29.43297216,18.188401388
2013-02-13,29.189637784,17.593915496
2013-02-14,28.49848128,18.292530164
2013-02-15,27.277086024,18.25599174
2013-02-16,28.382334312,17.462408448
2013-02-17,28.822372336,18.245238064
2013-02-18,29.391111784,18.096327068
2013-02-19,28.954794816,18.559902016
2013-02-20,29.754629912,18.560313876
2013-02-21,29.076945064,18.609237512
2013-02-22,29.191563288,18.658072068
2013-02-23,28.854580432,18.108552756
2013-02-24,28.65688628,17.90603316
2013-02-25,28.495028784,17.873442932
2013-02-26,28.534174096,17.620133792
2013-02-27,27.828735528,18.326331624
2013-02-28,28.089983056,18.007780928
2013-03-01,28.643666024,17.77895954
2013-03-02,27.849130752,18.493653312
2013-03-03,27.776816816,18.604959868
2013-03-04,29.672039872,19.349950352
2013-03-05,29.093626056,19.240058996
2013-03-06,28.458333584,19.226088948
2013-03-07,28.425879504,18.590833164
2013-03-08,28.182860616,18.618205652
2013-03-09,28.440941992,19.210872368
2013-03-10,29.085157248,19.13730018
2013-03-11,29.895283464,19.084369756
2013-03-12,30.226738136,18.281047264
2013-03-13,30.277958912,18.320584776
2013-03-14,29.955611688,18.504991168
2013-03-15,30.194682664,18.425436928
2013-03-16,29.941837872,19.344229068
2013-03-17,30.938895096,18.891102604
2013-03-18,30.616696936,18.829100752
2013-03-19,31.086069432,18.735411232
2013-03-20,31.400030456,18.902878456
2013-03-21,31.30141836,18.801262916
2013-03-22,31.263256248,18.70459302
2013-03-23,31.41551028,19.361144064
2013-03-24,30.460570872,18.932858736
2013-03-25,29.584461952,19.123536416
2013-03-26,29.44325344,19.112033812
2013-03-27,29.329036936,18.776520444
2013-03-28,29.227720848,18.904069748
2013-03-29,29.472684216,18.490629688
2013-03-30,28.597709792,18.839954308
2013-03-31,28.764691696,19.054388388
2013-04-01,29.24622884,19.613540972
2013-04-02,29.500867312,19.418427932
2013-04-03,29.44042412,19.387961544
2013-04-04,29.043459984,19.41262878
2013-04-05,28.469426416,19.541525476
2013-04-06,28.794617024,19.772484832
2013-04-07,28.815117416,19.506217964
2013-04-08,28.669941496,19.232019792
2013-04-09,28.668121256,19.04589478
2013-04-10,29.699811216,19.282114584
2013-04-11,29.806110336,19.026334988
2013-04-12,29.493445176,19.520667176
2013-04-13,29.373750184,19.42739522
2013-04-14,29.410033328,19.301960904
2013-04-15,30.184311616,19.416851144
2013-04-16,30.38807496,19.386206548
2013-04-17,30.437892688,19.559638392
2013-04-18,30.687680832,19.55440198
2013-04-19,30.751708272,19.60022852
2013-04-20,30.598232712,20.37099894
2013-04-21,30.741457728,20.32094368
2013-04-22,30.324424112,19.95656676
2013-04-23,30.52920192,20.151736712
2013-04-24,30.687323984,20.043769228
2013-04-25,31.145021168,20.168819088
2013-04-26,31.22442928,20.27827166
2013-04-27,31.243828624,20.619626504
2013-04-28,31.327995528,20.346138904
2013-04-29,31.94613244,20.635852544
2013-04-30,32.137290656,20.189948848
2013-05-01,32.472725496,20.7829587
2013-05-02,32.513865624,20.21324622
2013-05-03,32.489207936,21.136323584
2013-05-04,32.42523708,21.498709464
2013-05-05,32.495407952,20.875515648
2013-05-06,32.568830344,21.473541432
2013-05-07,32.524366976,20.952261552
2013-05-08,32.561329952,20.89462924
2013-05-09,32.682042568,21.160515884
2013-05-10,32.653873448,21.087957848
2013-05-11,32.659797136,21.415809884
2013-05-12,32.836705712,20.94388046
2013-05-13,32.665657952,20.559191736
2013-05-14,32.580834408,20.7278631
2013-05-15,32.440560096,20.266558972
2013-05-16,32.286030032,20.24963362
2013-05-17,32.552366,20.917858024
2013-05-18,32.965887784,21.347565368
2013-05-19,32.897132472,21.38425992
2013-05-20,33.20076676,21.664123616
2013-05-21,33.380426112,21.203270264
2013-05-22,33.32291948,20.931151064
2013-05-23,33.264407016,21.073993972
2013-05-24,33.120055112,21.136349092
2013-05-25,32.659526816,21.592799776
2013-05-26,33.033952728,21.252042188
2013-05-27,32.957762512,21.074310996
2013-05-28,32.85441112,21.249313612
2013-05-29,33.112750312,21.340859972
2013-05-30,33.579682896,21.476981108
2013-05-31,33.812161384,21.471399084
2013-06-01,34.484079784,21.74198042
2013-06-02,34.907669704,21.903093928
2013-06-03,34.64638444,22.091470764
2013-06-04,34.583488296,21.35410112
2013-06-05,34.12080928,21.022037612
2013-06-06,33.295957992,20.529505916
2013-06-07,32.516755168,20.724254264
2013-06-08,32.959383192,20.716260304
2013-06-09,33.338366744,20.953795972
2013-06-10,33.320824472,21.473765004
2013-06-11,33.83177508,21.391093464
2013-06-12,33.81118556,21.030591196
2013-06-13,34.213369624,21.023572628
2013-06-14,34.4934874,21.016890516
2013-06-15,34.416727096,21.290836868
2013-06-16,34.361462784,21.060565276
2013-06-17,33.949035704,21.074148708
2013-06-18,33.884790512,20.751771412
2013-06-19,33.975602016,20.910087064
2013-06-20,34.159749296,21.38722442
2013-06-21,33.88333268,21.276252664
2013-06-22,33.806032272,21.618938484
2013-06-23,34.135387528,21.393942388
2013-06-24,34.4643218,21.503319548
2013-06-25,34.952274376,21.3152964
2013-06-26,34.380693,21.229322596
2013-06-27,34.518362896,21.408987824
2013-06-28,34.9709188,21.548821212
2013-06-29,35.249852832,21.894638852
2013-06-30,35.145853344,21.606381408
2013-07-01,35.700035992,21.801928272
2013-07-02,35.950982272,21.35058002
2013-07-03,35.00631468,20.87237636
2013-07-04,34.764871728,21.268863704
2013-07-05,35.352462776,21.727832476
2013-07-06,35.627857536,21.860826428
2013-07-07,35.459496136,21.1119037
2013-07-08,35.187908864,21.487244764
2013-07-09,35.356784952,21.104224724
2013-07-10,35.16371,20.477928388
2013-07-11,34.604585672,20.284873068
2013-07-12,34.36546092,20.790070792
2013-07-13,35.048225872,21.175662436
2013-07-14,35.461104616,21.238964504
2013-07-15,35.826840016,21.938983864
2013-07-16,35.680933424,21.803848636
2013-07-17,35.4308736,21.707849936
2013-07-18,35.101356408,21.665172756
2013-07-19,34.993508288,21.757420972
2013-07-20,35.084777744,21.784324092
2013-07-21,35.547090072,21.961588892
2013-07-22,35.3157044,21.696160212
2013-07-23,35.38948348,22.288741784
2013-07-24,35.7248246,22.250059964
2013-07-25,35.547390624,22.273378544
2013-07-26,35.57717168,22.44708168
2013-07-27,36.469564688,22.82563006
2013-07-28,36.81571312,22.79033844
2013-07-29,37.215187176,22.928076784
2013-07-30,37.688373152,22.54044728
2013-07-31,37.232828232,22.1271868
2013-08-01,37.73129992,21.592148032
2013-08-02,37.927869224,21.427621332
2013-08-03,38.275850064,21.844595776
2013-08-04,38.736084904,21.640008428
2013-08-05,38.875875272,21.588365296
2013-08-06,38.272071072,21.060154988
2013-08-07,37.404641328,21.252108856
2013-08-08,37.41480368,21.464692096
2013-08-09,37.659013656,21.703429792
2013-08-10,37.857870976,21.733315996
2013-08-11,38.028266864,21.699587516
2013-08-12,38.208343944,22.164522628
2013-08-13,38.771316968,22.566509356
2013-08-14,39.335954424,22.280509988
2013-08-15,39.123407128,22.546681148
2013-08-16,39.408400816,22.688902164
2013-08-17,39.223856816,22.518581808
2013-08-18,39.45867644,22.602844428
2013-08-19,39.631894328,22.896786124
2013-08-20,39.713370664,23.246084428
2013-08-21,39.969666592,23.38952624
2013-08-22,39.816203024,23.099575512
2013-08-23,39.6492344,22.657893788
2013-08-24,39.370148152,22.75614096
2013-08-25,39.148053728,22.730808668
2013-08-26,39.567585696,23.108025284
2013-08-27,39.602789656,23.05529472
2013-08-28,38.617997,23.124117116
2013-08-29,36.470914872,22.411760204
2013-08-30,35.69575692,23.150164368
2013-08-31,36.638428032,23.383969888
2013-09-01,36.46074048,23.352218468
2013-09-02,35.422577376,23.46420726
2013-09-03,35.396276424,23.43532786
2013-09-04,35.566729488,23.490057004
2013-09-05,37.233053464,23.479756552
2013-09-06,39.13140312,23.602803656
2013-09-07,39.001690592,23.85319114
2013-09-08,38.19433472,22.930869152
2013-09-09,37.537413256,22.822677992
2013-09-10,36.793149096,22.919001108
2013-09-11,37.570642416,22.540217972
2013-09-12,37.19896296,22.414821352
2013-09-13,36.847415328,22.323856024
2013-09-14,37.087066976,23.093205788
2013-09-15,38.183968056,23.117990332
2013-09-16,37.960257064,23.144693556
2013-09-17,36.771980496,23.047769608
2013-09-18,36.281492096,22.6539522
2013-09-19,35.591476744,22.470460116
2013-09-20,35.385558496,22.53190182
2013-09-21,36.45556256,22.98456342
2013-09-22,37.355612216,22.794205272
2013-09-23,37.16676544,22.484088892
2013-09-24,37.199336592,22.691176712
2013-09-25,37.786473848,22.466202412
2013-09-26,37.250668664,22.436541264
2013-09-27,37.049465384,22.527509504
2013-09-28,37.713413144,22.484583396
2013-09-29,,22.295513276
2013-09-30,37.572143024,22.396326436
2013-10-01,37.682427648,22.440417196
2013-10-02,38.479909536,23.162727212
2013-10-03,38.554167472,23.471634744
2013-10-04,38.38100716,23.258239428
2013-10-05,37.993908328,23.019569256
2013-10-06,38.107890568,22.644150428
2013-10-07,37.981009712,22.831887412
2013-10-08,38.18171532,23.416634692
2013-10-09,40.276784272,22.282285016
2013-10-10,41.329876736,22.592282896
2013-10-11,42.648658856,22.713571704
2013-10-12,42.6530882,22.751803132
2013-10-13,42.355652728,22.350208372
2013-10-14,42.13113876,22.148533796
2013-10-15,42.002564288,21.713733576
2013-10-16,42.173363456,22.47785196
2013-10-17,42.588837232,22.373222392
2013-10-18,42.532418568,22.76141146
2013-10-19,42.947638584,22.918194608
2013-10-20,43.490246632,23.24726742
2013-10-21,44.152349512,23.478848776
2013-10-22,44.62483612,22.87031716
2013-10-23,44.392614752,23.16240046
2013-10-24,44.405909712,23.339172536
2013-10-25,44.440251304,24.07754526
2013-10-26,44.43815468,24.633850428
2013-10-27,44.415037576,24.248939428
2013-10-28,44.503655688,24.212806116
2013-10-29,44.652811104,24.6266691
2013-10-30,44.851050096,25.390143288
2013-10-31,45.218405696,24.771915384
2013-11-01,45.777509192,25.066021716
2013-11-02,46.308030816,24.8644926
2013-11-03,46.144874016,24.54014348
2013-11-04,45.123545624,24.446632852
2013-11-05,45.72677196,24.592658992
2013-11-06,46.203615064,25.491790688
2013-11-07,45.952738304,25.42144058
2013-11-08,46.237001192,25.539279324
2013-11-09,46.16344892,26.194944172
2013-11-10,46.084309688,25.678567904
2013-11-11,45.967306864,26.345271304
2013-11-12,46.483346352,25.797204168
2013-11-13,46.61776704,25.64382324
2013-11-14,46.380588384,25.544336432
2013-11-15,46.648208096,25.937413028
2013-11-16,47.466478792,26.140874328
2013-11-17,47.161883632,26.191113476
2013-11-18,46.711196952,25.922247444
2013-11-19,47.141715464,26.1984984
2013-11-20,47.72222288,26.597555948
2013-11-21,48.270554288,26.612159908
2013-11-22,48.17217724,26.710414608
2013-11-23,49.031766376,27.155326088
2013-11-24,48.700342872,27.013673392
2013-11-25,48.358277888,27.259768328
2013-11-26,49.054261536,26.832280712
2013-11-27,49.625165208,26.786598736
2013-11-28,49.27355572,26.739329404
2013-11-29,49.307342576,26.849985432
2013-11-30,49.552385768,27.8004753
2013-12-01,50.911460728,27.29397476
2013-12-02,50.73088736,27.222657848
2013-12-03,51.023399672,27.455865364
2013-12-04,51.09871252,27.12350194
2013-12-05,50.937563392,26.944008552
2013-12-06,51.103101336,26.40541838
2013-12-07,51.150169432,27.86050112
2013-12-08,51.942779624,27.874586908
2013-12-09,52.580648232,27.997492456
2013-12-10,52.847361984,27.775787904
2013-12-11,53.212449904,27.195050068
2013-12-12,52.70970612,26.94045072
2013-12-13,51.584494392,27.138484064
2013-12-14,52.432026216,27.89096464
2013-12-15,52.946975568,27.414538448
2013-12-16,52.901129792,27.630120356
2013-12-17,52.969025504,27.493660084
2013-12-18,52.751126344,28.030911976
2013-12-19,53.489345832,27.514089104
2013-12-20,53.995967072,28.034216428
2013-12-21,53.887131416,27.363685624
2013-12-22,54.061103992,27.235880184
2013-12-23,53.39836676,27.872179856
2013-12-24,53.624613256,27.053183004
2013-12-25,53.278881376,25.896092236
2013-12-26,52.990003392,27.34065654
2013-12-27,53.52872748,28.119195096
2013-12-28,53.717653592,28.041119684
2013-12-29,53.785493632,28.66464506
2013-12-30,54.606101688,28.949105676
2013-12-31,55.030006544,27.843696224
2014-01-01,55.059122544,27.521165408
2014-01-02,55.079585048,29.739963972
2014-01-03,56.341254296,29.537837812
2014-01-04,56.689077224,30.579187968
2014-01-05,56.987000552,30.31302142
2014-01-06,57.451769552,30.36840756
2014-01-07,57.301160928,29.908862764
2014-01-08,57.684674664,30.284551388
2014-01-09,57.723875232,29.941642392
2014-01-10,57.239084888,29.4250009
2014-01-11,56.769960312,30.879007404
2014-01-12,57.72851428,30.325813052
2014-01-13,57.73626324,30.77940058
2014-01-14,57.899021624,30.254673264
2014-01-15,57.266570104,30.288634824
2014-01-16,57.6763378,30.243685048
2014-01-17,57.737748952,30.343118428
2014-01-18,58.667110656,30.722147228
2014-01-19,58.793085968,30.427162772
2014-01-20,58.19000892,30.488490372
2014-01-21,58.863730592,30.651338348
2014-01-22,59.20230696,30.119313872
2014-01-23,58.027116728,29.939875996
2014-01-24,57.7064472,30.316887812
2014-01-25,59.357974528,31.392497948
2014-01-26,60.309383184,31.38629432
2014-01-27,60.26186292,30.990470912
2014-01-28,59.919964976,30.265362564
2014-01-29,58.855454512,30.4891496
2014-01-30,59.581555536,30.469275
2014-01-31,59.126191232,30.452340128
2014-02-01,59.788950536,30.969503832
2014-02-02,60.434505296,31.19334342
2014-02-03,61.346080344,30.86944194
2014-02-04,61.629415888,30.80883858
2014-02-05,61.607579032,30.326313144
2014-02-06,66.9516892,30.992759668
2014-02-07,70.369898544,30.938436144
2014-02-08,69.817605592,31.6203024
2014-02-09,69.714172048,31.929256516
2014-02-10,64.243125064,31.74527802
2014-02-11,62.730592896,31.72783014
2014-02-12,62.43308696,30.774504644
2014-02-13,60.644932192,30.583296908
2014-02-14,60.328181,31.060861008
2014-02-15,61.739907184,32.784117896
2014-02-16,62.816019144,33.151241684
2014-02-17,63.281553904,32.97392518
2014-02-18,63.586070264,32.442855004
2014-02-19,63.854387504,32.428788432
2014-02-20,63.918255288,32.69839582
2014-02-21,64.239938776,32.766924792
2014-02-22,64.3532504,33.427029292
2014-02-23,64.225933336,33.204990228
2014-02-24,63.595456848,33.503626052
2014-02-25,64.013389208,33.628544104
2014-02-26,64.261182304,33.411024988
2014-02-27,63.5704572,33.219490544
2014-02-28,63.822191864,33.324492852
2014-03-01,65.609327256,34.835314328
2014-03-02,66.604069656,34.051438616
2014-03-03,66.527218224,34.493668312
2014-03-04,66.81114772,34.208176084
2014-03-05,66.75041064,34.32278036
2014-03-06,66.732510304,33.74077854
2014-03-07,66.479659136,33.982332704
2014-03-08,67.110751024,34.059636348
2014-03-09,66.88553156,33.36007624
2014-03-10,65.179199968,33.306971604
2014-03-11,64.95640064,33.78389828
2014-03-12,65.030050136,33.66111566
2014-03-13,64.508393224,33.731525832
2014-03-14,64.01989832,33.650613828
2014-03-15,64.28179604,34.829251352
2014-03-16,65.38759868,33.91384088
2014-03-17,64.79487232,34.165408296
2014-03-18,64.79698188,33.544604848
2014-03-19,64.997354328,33.575268056
2014-03-20,65.580477744,34.033353108
2014-03-21,65.611489008,34.852464688
2014-03-22,66.626456384,36.19325356
2014-03-23,66.851949968,35.623464764
2014-03-24,67.259158368,35.94822988
2014-03-25,67.956532352,35.771175284
2014-03-26,67.8355356,35.585766996
2014-03-27,67.55037464,35.843012612
2014-03-28,67.653033832,36.507369664
2014-03-29,68.800045104,37.426089012
2014-03-30,69.16462864,36.995303432
2014-03-31,69.28242036,36.29179304
2014-04-01,70.178437368,35.342167516
2014-04-02,70.073369696,35.424049252
2014-04-03,69.260779232,35.7452528
2014-04-04,69.895053624,36.033626324
2014-04-05,70.344374368,36.123307332
2014-04-06,69.929477904,35.146685532
2014-04-07,69.199557656,35.328017644
2014-04-08,67.195931792,34.58048362
2014-04-09,61.978508296,32.706015872
2014-04-10,59.50168964,31.814602728
2014-04-11,60.433740384,32.636742216
2014-04-12,61.570231608,33.650116148
2014-04-13,63.624989208,33.737543792
2014-04-14,64.062961208,34.082678368
2014-04-15,64.539389856,33.551734672
2014-04-16,64.306986624,33.083894584
2014-04-17,63.036923776,33.185780336
2014-04-18,58.216192448,32.550870644
2014-04-19,59.01884476,33.093753436
2014-04-20,59.944120656,32.700025268
2014-04-21,61.237543384,33.949572308
2014-04-22,62.883295456,34.691949812
2014-04-23,64.50331088,35.127393788
2014-04-24,65.765145128,35.033178696
2014-04-25,65.992245552,36.06335662
2014-04-26,66.077134552,36.08784032
2014-04-27,65.674345088,36.080053044
2014-04-28,66.64556652,36.297860416
2014-04-29,66.205880872,36.436898612
2014-04-30,66.716891936,36.81099042
2014-05-01,68.141306576,36.699384896
2014-05-02,68.970718016,37.977127452
2014-05-03,70.274606104,38.036489408
2014-05-04,71.708112296,37.51821414
2014-05-05,71.645027136,38.227497748
2014-05-06,72.19886732,38.184365352
2014-05-07,71.843536088,37.49647882
2014-05-08,71.589756488,37.97803888
2014-05-09,72.492774024,38.230384476
2014-05-10,73.955583096,39.54077972
2014-05-11,74.330493072,39.26814888
2014-05-12,74.648146752,38.883006852
2014-05-13,75.159601496,38.747824944
2014-05-14,75.154781592,37.77782408
2014-05-15,74.473646312,38.262127212
2014-05-16,74.861944808,38.07282878
2014-05-17,74.856082768,38.389160436
2014-05-18,74.816141872,38.279215968
2014-05-19,74.720200424,38.657588792
2014-05-20,75.334498,38.1485522
2014-05-21,73.934569056,37.829474408
2014-05-22,73.764536328,38.380156096
2014-05-23,74.49107208,38.960138836
2014-05-24,75.01997964,39.143199912
2014-05-25,75.251078352,37.824793812
2014-05-26,74.126627384,38.680642608
2014-05-27,74.744722776,39.14145224
2014-05-28,75.30904736,38.576427392
2014-05-29,75.237734952,39.013330428
2014-05-30,74.615166232,38.741559832
2014-05-31,74.96938084,38.230814248
2014-06-01,76.305683568,38.481775156
2014-06-02,77.493497544,39.717897348
2014-06-03,78.367706024,39.462404784
2014-06-04,78.112333168,39.33734084
2014-06-05,78.921455816,39.589517028
2014-06-06,80.257676024,39.25699286
2014-06-07,80.50176588,38.950480472
2014-06-08,81.462895936,38.284251848
2014-06-09,81.5576438,39.71109504
2014-06-10,81.832024392,38.900463132
2014-06-11,81.500180312,39.561993252
2014-06-12,82.979976832,38.452088464
2014-06-13,83.037650272,38.579131184
2014-06-14,82.909630744,39.261312832
2014-06-15,83.260186704,39.111536968
2014-06-16,84.155166,39.825638068
2014-06-17,84.572069104,40.037918452
2014-06-18,84.55034592,39.754769424
2014-06-19,83.827291312,40.24030032
2014-06-20,85.447738664,40.309056528
2014-06-21,86.268606544,40.756391232
2014-06-22,85.445698296,39.944094428
2014-06-23,84.979778512,40.637871704
2014-06-24,85.642950584,40.559814572
2014-06-25,84.673616608,40.61318862
2014-06-26,85.901668848,39.731843108
2014-06-27,86.286189368,40.955391224
2014-06-28,86.843323128,40.044613448
2014-06-29,87.189886168,38.569378588
2014-06-30,84.885331528,38.789661548
2014-07-01,85.085330976,38.352788368
2014-07-02,84.490191904,39.42246752
2014-07-03,86.249904104,39.327319796
2014-07-04,86.848211336,38.840172916
2014-07-05,86.950062816,38.574763812
2014-07-06,85.54266972,39.766418824
2014-07-07,83.803519056,40.700846204
2014-07-08,83.254006144,40.168037996
2014-07-09,83.540301656,39.742097668
2014-07-10,83.567789032,39.947720844
2014-07-11,83.574676552,40.114003672
2014-07-12,84.500083496,40.169625784
2014-07-13,84.728615992,39.592380548
2014-07-14,84.70946072,41.068656656
2014-07-15,85.33297164,40.416101436
2014-07-16,85.547140976,40.805691504
2014-07-17,86.44663908,40.409080492
2014-07-18,86.588262656,39.418850708
2014-07-19,84.90827,39.46628942
2014-07-20,85.649356296,40.333049712
2014-07-21,85.901377568,41.412944956
2014-07-22,86.220382672,41.6940253
2014-07-23,87.012961296,41.443887636
2014-07-24,86.895759704,41.0162675
2014-07-25,87.169037808,40.999879748
2014-07-26,87.14958684,40.587203236
2014-07-27,87.254515528,39.941059504
2014-07-28,87.413513344,41.553861936
2014-07-29,86.812710616,40.602817608
2014-07-30,87.590973232,40.937588524
2014-07-31,88.546446392,41.816203668
2014-08-01,89.52834168,41.317969984
2014-08-02,90.786684208,41.671541152
2014-08-03,90.32408932,41.013290028
2014-08-04,90.133311256,41.487682104
2014-08-05,89.75518684,41.9418889
2014-08-06,89.548371352,41.510059172
2014-08-07,89.912485544,41.9769319
2014-08-08,90.36579692,42.045988548
2014-08-09,90.816133824,42.48390436
2014-08-10,90.279813528,42.72791076
2014-08-11,90.368057896,42.375941784
2014-08-12,90.089916056,42.429748244
2014-08-13,89.802056552,43.524360988
2014-08-14,89.88111892,43.019787504
2014-08-15,89.415841192,43.046202724
2014-08-16,89.161785224,43.24288034
2014-08-17,89.282305296,42.808400316
2014-08-18,89.402230344,43.840595476
2014-08-19,90.275051288,42.896153756
2014-08-20,90.208897072,42.122207484
2014-08-21,89.774238088,42.336221124
2014-08-22,90.639093848,43.48709496
2014-08-23,92.49038888,44.692477416
2014-08-24,93.757427408,45.168873644
2014-08-25,93.932667296,44.320212796
2014-08-26,93.005944584,44.611085876
2014-08-27,93.2184652,44.549060692
2014-08-28,94.269532584,44.615656948
2014-08-29,93.19115928,44.564708284
2014-08-30,93.546783704,44.100502316
2014-08-31,94.14578692,43.74913132
2014-09-01,95.037463592,45.254028852
2014-09-02,96.62880852,45.735955324
2014-09-03,96.472826,44.881056516
2014-09-04,96.117798944,45.65347996
2014-09-05,97.364322112,46.055600716
2014-09-06,97.268686216,45.452629928
2014-09-07,96.804067688,44.197107488
2014-09-08,97.281412592,44.484716612
2014-09-09,96.646112888,43.911240476
2014-09-10,95.799334056,44.180500548
2014-09-11,96.008762968,44.2103625
2014-09-12,96.6507518,44.89937184
2014-09-13,96.79267912,44.86212282
2014-09-14,97.052747728,44.94584602
2014-09-15,97.372131456,44.75396618
2014-09-16,96.446759624,44.113922636
2014-09-17,96.255256776,44.655132492
2014-09-18,96.945874328,43.945405664
2014-09-19,96.330728576,44.636368316
2014-09-20,99.3123684,45.7554679
2014-09-21,98.619950992,44.448820416
2014-09-22,97.20353936,45.360602744
2014-09-23,96.948639048,45.39871574
2014-09-24,96.92126112,44.881145952
2014-09-25,97.049826264,44.632164096
2014-09-26,97.202896128,44.824083524
2014-09-27,97.560308472,45.222006864
2014-09-28,97.962033552,45.115473028
2014-09-29,97.60460536,45.200207748
2014-09-30,97.992454936,44.792497388
2014-10-01,99.370111984,44.825932324
2014-10-02,99.865617392,44.608697472
2014-10-03,100.06602144,44.488038312
2014-10-04,99.807339928,44.000070536
2014-10-05,99.64977076,44.153409724
2014-10-06,99.308652096,45.539567836
2014-10-07,99.934472432,45.924299176
2014-10-08,100.45771868,46.11602184
2014-10-09,101.006421016,45.892194152
2014-10-10,101.346435904,47.042454448
2014-10-11,101.426382144,47.883323648
2014-10-12,102.266905136,46.779304832
2014-10-13,101.561533376,46.810958648
2014-10-14,101.142016912,46.48977074
2014-10-15,100.71857624,45.60669206
2014-10-16,101.947806928,46.740464056